1998-067QP

Last updated on Fri Jul 19 2019 00:02:10 GMT+0000 (Coordinated Universal Time)

1 44429U 98067QP 19198.57147735 .00004785 00000-0 86025-4 0 9999 2 44429 51.6404 210.4444 0003184 147.6134 212.5052 15.51869441 2267
UTC large
Height (km)
Speed (km/s)
/
Latitude / Longitude
Inclination (degrees)
Orbital Period (minutes)
Azimuth
Elevation
Range (km)
Doppler Factor

Next 0 passes for location: London (51.5072 / 0.1276)

Sorry there are no passes over London.